Location: Brabourne
(51.1333°N, 1.0000°E)
Time: 19:02:08
(UTC+00:00)

IRS-1D - Pass Details

Date: 27 October 2021
Orbit: 739 x 817 km, 98.6° (Epoch: 04 December)

Event Time Altitude Azimuth Distance (km) Brightness Sun altitude
Rises 03:51:47 0° 8° (N) 3,265 7.0 -26.8°
Reaches altitude 10° 03:54:24 10° 356° (N) 2,320 6.1 -26.4°
Enters shadow 03:56:04 18° 342° (NNW) 1,818 5.4 -26.2°
